{"data":{"norad_id":43574,"epoch":"2026-09-19T06:42:34.448832Z","epoch_age_seconds":120812,"freshness":"FRESH","line1":"1 43574U 18061F   26262.27956538  .00000010  00000+0 -34343-5 0  9995","line2":"2 43574  86.4009  17.4581 0001957  94.7713 265.3706 14.34217612426890","mean_motion":14.34217612,"eccentricity":0.0001957,"inclination_deg":86.4009,"raan_deg":17.4581,"arg_perigee_deg":94.7713,"mean_anomaly_deg":265.3706,"bstar":-3.4343e-6,"rev_number":42689,"period_min":100.40317368519,"perigee_km":776.26722241023,"apogee_km":779.06800433591,"semimajor_km":7155.8046133731,"source":"CELESTRAK","updated_at":"2026-09-20T09:00:36.353869Z"}}